Terminal Aerodrome Forecast
Issued by NWS Mt. Holly, NJ

Home | Current Version | Previous Version | Text Only | Print | Product List | Glossary On
Versions: 1 2 3 4 5 6 7 8 9 10 11 12 13 14 15 16 17 18 19 20 21 22 23 24 25 26 27 28 29 30 31 32 33 34
000
FTUS41 KPHI 261439 AAA
TAFPHL
TAF AMD
KPHL 261439Z 2615/2718 08006KT P6SM SCT025 BKN050
     FM261700 13006KT P6SM BKN035
     FM262200 16006KT P6SM BKN080
     FM271000 19007KT P6SM SCT025 BKN050=

USA.gov is the U.S. government's official web portal to all federal, state and local government web resources and services.